楊-高彗星

P/2009 L2 ( Yang-Gao )

English version
Home page
Updated on September 19, 2009

---------------------------------------------------------------------

・ プロフィール

発見日 2009年6月15日
発見光度 14.2等
発見者 楊睿(浙江省杭州市)、高興(新彊ウイグル自治区ウルムチ) 南山、星明天文台

・ 写真集

・ 軌道要素

Epoch 2009 May 9.0 TT = JDT 2454960.5
T 2009 May 21.74779 TT                                  MPC
q   1.2961133            (2000.0)            P               Q
n   0.15590113     Peri.  346.94813     -0.39392832     +0.87751870
a   3.4190323      Node   259.30512     -0.81632213     -0.47075277
e   0.6209122      Incl.   16.15854     -0.42242000     +0.09139348
P   6.32

・ 星図

・ 光度変化

        m1 = 14.0 + 5 logΔ + 10.0 log r

---------------------------------------------------------------------

軌道要素はM.P.E.C. 2009-P14に掲載されたものです。
星図はステラナビゲータ Ver.8 (アストロアーツ) で作成したものです。
光度グラフはComet for Windowsで作成したものです。

---------------------------------------------------------------------

Copyright(C) Seiichi Yoshida (comet@aerith.net). All rights reserved.